Location: Unspecified
(0.0000°N, 0.0000°E)
Time: 12:44:08
(UTC+00:00)

N. Korean satellite - Visible Passes

Search period start: 20 September 2017 00:00
Search period end: 30 September 2017 00:00
Orbit: 461 x 515 km, 97.2° (Epoch: 19 September)

Date Brightness Start Highest point End Pass type
(mag) Time Alt. Az. Time Alt. Az. Time Alt. Az.
20 Sep 6.6 18:27:26 10° SSE 18:31:11 81° E 18:34:56 10° N visible
22 Sep 9.8 19:15:44 10° SW 19:18:09 17° W 19:20:36 10° WNW visible
23 Sep 8.3 18:51:30 10° S 18:55:02 38° W 18:58:31 10° NNW visible
24 Sep 6.6 18:28:06 10° SSE 18:31:53 84° ENE 18:35:37 10° N visible
26 Sep 9.8 19:16:27 10° SW 19:18:49 16° WSW 19:21:11 10° WNW visible
27 Sep 8.3 18:52:11 10° S 18:55:40 36° W 18:59:08 10° NNW visible
28 Sep 6.6 18:28:44 10° SSE 18:32:31 87° E 18:36:15 10° N visible
